Weather observations for the past three days for
Mojave
Imperial (Metric)
Date Time (pdt) Wind (mph) Vis. (mi.) Weather Sky Cond. Temperature (ºF) Relative Humidity Wind Chill (°F) Heat Index (°F) Pressure Precipitation (in)
Air Dwpt 6 hour altimeter (in) sea level (mb) 1 hr 3 hr 6 hr
Max. Min.
07 00:15 NW 21 G 26 10.00 Fair and Breezy CLR 66.9 40.5 38% 30.03 0.0
06 23:55 NW 23 G 30 10.00 Fair and Breezy CLR 67.5 40.3 37% 30.04 0.0
06 23:35 NW 24 10.00 Fair and Breezy CLR 67.5 40.6 38% 30.04 0.0
06 22:55 NW 22 10.00 Fair and Breezy CLR 67.6 40.5 80.8 67.1 37% 30.03 0.0
06 22:35 NW 25 G 31 10.00 Fair and Breezy CLR 67.8 40.8 37% 30.03 0.0
06 22:15 NW 25 G 32 10.00 Fair and Breezy CLR 68 40.8 37% 30.03 0.0
06 21:55 NW 24 10.00 Fair and Breezy CLR 67.1 42.1 40% 30.03 0.0
06 21:35 NW 21 G 32 10.00 Fair and Breezy CLR 67.6 42.1 40% 30.03 0.0
06 21:15 NW 21 G 29 10.00 Fair and Breezy CLR 67.6 42.4 40% 30.03 0.0
06 20:55 NW 21 10.00 Fair and Breezy CLR 68.4 41.7 38% 30.02 0.0
06 20:35 NW 18 10.00 Fair CLR 69.1 41.4 37% 30.01 0.0
06 20:15 NW 20 10.00 Fair CLR 68.9 42.3 38% 30.01 0.0
06 19:55 W 16 G 24 10.00 Fair CLR 69.6 43.5 39% 30.01 0.0
06 19:35 NW 18 10.00 Fair CLR 70.2 44.6 40% 30.01 0.0
06 19:15 NW 17 G 25 10.00 Fair CLR 71.6 45.3 39% 30.01 0.0
06 18:55 NW 20 9.00 Fair CLR 73.2 45.7 38% 30 0.0
06 18:35 NW 20 10.00 Fair CLR 73.9 46 37% 30 0.0
06 18:15 NW 17 9.00 Fair CLR 75.7 46.2 35% 78 30 0.0
06 17:55 NW 20 10.00 Fair CLR 77.2 46 33% 78 30 0.0
06 17:35 NW 21 10.00 Fair and Breezy CLR 78.6 45.7 31% 79 30 0.0
06 17:15 NW 16 10.00 Fair CLR 80.1 45.5 30% 79 30 0.0
06 16:55 NW 21 10.00 Fair and Breezy CLR 80.4 45.7 83.7 68.9 29% 79 30 0.0
06 16:35 NW 17 10.00 Fair CLR 81.3 44.1 27% 80 29.99 0.0
06 16:15 NW 8 10.00 Fair CLR 82 38.8 21% 80 30 0.0
06 15:55 NE 8 G 17 10.00 Fair CLR 82.9 33.6 17% 80 30 0.0
06 15:35 E 6 G 17 10.00 Fair CLR 81.7 34.7 18% 80 30.01 0.0
06 15:15 E 12 10.00 Fair CLR 83.7 34.9 17% 81 30.01 0.0
06 14:55 E 8 10.00 Fair CLR 81.3 34.9 19% 79 30.02 0.0
06 14:35 E 8 10.00 Fair CLR 81.1 35.1 19% 79 30.03 0.0
06 14:15 NE 7 10.00 Fair CLR 80.4 36.1 20% 79 30.03 0.0
06 13:55 Vrbl 7 10.00 Fair CLR 80.4 36.7 21% 79 30.03 0.0
06 13:35 Calm 10.00 Fair CLR 78.8 36.7 22% 78 30.04 0.0
06 13:15 Vrbl 7 10.00 Fair CLR 79 36.7 22% 78 30.04 0.0
06 12:55 Vrbl 5 10.00 Fair CLR 76.8 37 24% 77 30.05 0.0
06 12:35 Vrbl 6 10.00 Fair CLR 76.5 37.2 24% 77 30.05 0.0
06 12:15 SE 5 10.00 Fair CLR 76.3 37.2 24% 77 30.06 0.0
06 11:55 Calm 10.00 Fair CLR 73.4 37.4 27% 30.06 0.0
06 11:35 Vrbl 3 10.00 Fair CLR 73 39 29% 30.07 0.0
06 11:15 E 3 10.00 Fair CLR 71.2 39 31% 30.07 0.0
06 10:55 S 3 10.00 Fair CLR 69.8 39.4 70.3 52.3 33% 30.07 0.0
06 10:35 Calm 10.00 Fair CLR 68.9 39.2 34% 30.07 0.0
06 10:15 Calm 10.00 A Few Clouds FEW280 66.7 39 36% 30.07 0.0
06 09:55 Vrbl 3 10.00 Fair CLR 64.9 39.4 39% 30.07 0.0
06 09:35 E 5 10.00 Fair CLR 63.9 39.6 41% 30.07 0.0
06 09:15 Calm 10.00 Fair CLR 62.4 39.2 43% 30.07 0.0
06 08:55 Calm 10.00 Fair CLR 60.4 39.9 47% 30.07 0.0
06 08:35 Calm 10.00 Fair CLR 59.7 39.6 47% 30.07 0.0
06 08:15 E 5 10.00 Fair CLR 59 40.1 50% 30.07 0.0
06 07:55 E 5 10.00 Fair CLR 57.4 40.6 54% 30.06 0.0
06 07:35 E 5 10.00 Fair CLR 55.9 40.8 57% 30.05 0.0
06 07:15 SE 5 10.00 Fair CLR 55 40.1 57% 30.05 0.0
06 06:55 NE 5 10.00 Fair CLR 54.5 39.2 56% 30.04 0.0
06 06:35 N 8 10.00 Fair CLR 53.4 39.2 59% 30.03 0.0
06 06:15 NW 6 10.00 Fair CLR 53.1 39.7 61% 30.03 0.0
06 05:55 NW 7 9.00 A Few Clouds FEW130 52.5 40.3 63% 30.02 0.0
06 05:35 NW 8 10.00 Partly Cloudy SCT130 53.6 40.5 61% 30.02 0.0
06 05:15 NW 9 10.00 Partly Cloudy SCT130 53.1 40.5 62% 30.02 0.0
06 04:55 N 9 10.00 Fair CLR 51.8 39 53.8 51.8 62% 30.02 0.0
06 04:35 NW 7 10.00 Fair CLR 52.5 40.1 63% 30.01 0.0
06 04:15 N 12 10.00 Fair CLR 52.9 39.7 61% 30.01 0.0
06 03:55 NW 12 10.00 Fair CLR 53.6 40.1 60% 30.01 0.0
06 03:35 NW 13 10.00 Fair CLR 53.1 40.3 62% 30.01 0.0
06 03:15 NW 13 10.00 Fair CLR 52.9 40.1 62% 30.01 0.0
06 02:55 NW 14 10.00 Fair CLR 53.6 40.1 60% 30 0.0
06 02:35 NW 13 10.00 Fair CLR 53.4 39.9 60% 30 0.0
06 02:15 NW 12 10.00 Fair CLR 53.6 39.9 60% 30 0.0
06 01:55 NW 10 10.00 Fair CLR 53.1 39.9 61% 30 0.0
06 01:35 NW 12 10.00 Fair CLR 52.9 39.9 62% 30.01 0.0
06 01:15 NW 13 10.00 Fair CLR 53.6 39.9 60% 30.01 0.0
06 00:55 NW 13 10.00 Fair CLR 53.6 40.1 60% 30.01 0.0
06 00:35 NW 9 10.00 Fair CLR 53.4 39.9 60% 30.01 0.0
06 00:15 NW 12 10.00 Fair CLR 53.8 39.6 59% 30 0.0
05 23:55 NW 15 10.00 Fair CLR 53.4 39.9 60% 29.99 0.0
05 22:55 NW 15 10.00 Fair CLR 53.4 40.3 59.2 53.4 61% 29.98 0.0
05 22:35 NW 14 10.00 Fair CLR 53.4 40.1 61% 29.98 0.0
05 22:15 NW 16 G 28 10.00 Fair CLR 53.6 40.1 60% 29.97 0.0
05 21:55 NW 21 G 26 10.00 Fair and Breezy CLR 53.8 39.9 60% 29.97 0.0
05 21:35 NW 21 G 26 10.00 Fair and Breezy CLR 54 39.9 59% 29.96 0.0
05 21:15 NW 21 G 26 10.00 Fair and Breezy CLR 53.8 40.1 60% 29.95 0.0
05 20:55 NW 23 G 29 10.00 Fair and Breezy CLR 54 40.1 60% 29.94 0.0
05 20:35 NW 20 G 30 10.00 Fair CLR 53.8 40.5 61% 29.94 0.0
05 20:15 NW 22 G 29 10.00 Fair and Breezy CLR 54 39.9 59% 29.93 0.0
05 19:55 NW 22 G 30 10.00 Fair and Breezy CLR 54.5 39.9 58% 29.92 0.0
05 19:35 NW 22 G 30 10.00 Fair and Breezy CLR 54.9 39.4 56% 29.92 0.0
05 19:15 NW 22 G 31 10.00 Fair and Breezy CLR 55.4 40.6 58% 29.92 0.0
05 18:55 NW 25 G 32 10.00 Fair and Breezy CLR 56.5 41.2 57% 29.9 0.0
05 18:35 NW 23 G 35 10.00 Fair and Breezy CLR 57 40.8 55% 29.9 0.0
05 18:15 NW 23 G 30 10.00 Fair and Breezy CLR 58.1 40.3 52% 29.89 0.0
05 17:55 NW 25 G 33 10.00 Fair and Breezy CLR 58.3 41.5 54% 29.9 0.0
05 17:35 NW 26 G 32 10.00 Fair and Windy CLR 59 41.5 53% 29.9 0.0
05 17:15 NW 31 G 38 10.00 Fair and Windy CLR 58.8 42.1 54% 29.9 0.0
05 16:55 NW 26 G 37 10.00 Fair and Windy CLR 59.5 42.1 63.5 59.2 53% 29.89 0.0
05 16:35 NW 25 G 33 10.00 Fair and Breezy CLR 60.1 42.3 52% 29.89 0.0
05 16:15 NW 29 G 35 10.00 Fair and Windy CLR 59.5 42.4 53% 29.89 0.0
05 15:55 NW 26 G 35 10.00 A Few Clouds and Windy FEW070 60.8 41.7 50% 29.89 0.0
05 15:35 NW 23 G 32 10.00 A Few Clouds and Breezy FEW070 61.5 41.7 48% 29.9 0.0
05 15:15 NW 26 G 37 10.00 Fair and Windy CLR 61.2 41.7 49% 29.9 0.0
05 14:55 NW 24 G 35 10.00 A Few Clouds and Breezy FEW240 61 41.5 49% 29.9 0.0
05 14:35 NW 28 G 31 10.00 A Few Clouds and Windy FEW240 62.1 41.5 47% 29.9 0.0
05 14:15 NW 28 G 33 10.00 A Few Clouds and Windy FEW360 62.1 41 46% 29.91 0.0
05 13:55 NW 26 10.00 Fair and Windy CLR 62.6 40.5 44% 29.91 0.0
05 13:35 NW 28 G 35 10.00 Fair and Windy CLR 62.4 41 46% 29.91 0.0
05 13:15 NW 23 G 31 10.00 Fair and Breezy CLR 63.1 41 44% 29.91 0.0
05 12:55 NW 23 G 31 10.00 A Few Clouds and Breezy FEW075 61.7 41 47% 29.92 0.0
05 12:35 NW 23 G 31 10.00 A Few Clouds and Breezy FEW075 61.3 41 47% 29.92 0.0
05 12:15 NW 23 G 31 10.00 A Few Clouds and Breezy FEW075 60.6 41.9 50% 29.92 0.0
05 11:55 NW 23 G 29 10.00 Fair and Breezy CLR 60.1 41.5 51% 29.92 0.0
05 11:35 NW 25 10.00 Fair and Breezy CLR 59.9 41.4 51% 29.91 0.0
05 11:15 NW 21 10.00 Fair and Breezy CLR 60.4 41.2 49% 29.91 0.0
05 10:55 NW 17 G 28 10.00 Fair CLR 60.4 40.6 60.4 48.7 48% 29.9 0.0
05 10:35 NW 20 G 29 10.00 Fair CLR 59 39.9 49% 29.9 0.0
05 10:15 NW 25 10.00 Fair and Breezy CLR 57.9 40.6 53% 29.9 0.0
05 09:55 NW 24 G 30 10.00 A Few Clouds and Breezy FEW080 57.7 40.6 53% 29.9 0.0
05 09:35 NW 25 G 29 10.00 A Few Clouds and Breezy FEW080 57 40.8 55% 29.89 0.0
05 09:15 NW 21 G 32 10.00 Fair and Breezy CLR 56.7 40.3 54% 29.89 0.0
05 08:55 NW 20 G 31 10.00 Fair CLR 56.1 40.3 56% 29.88 0.0
05 08:35 NW 24 G 33 10.00 Fair and Breezy CLR 55.4 40.1 57% 29.88 0.0
05 08:15 NW 24 G 35 10.00 Fair and Breezy CLR 55.4 39.2 55% 29.87 0.0
05 07:55 NW 20 10.00 Fair CLR 54.5 38.3 55% 29.87 0.0
05 07:35 NW 16 G 28 10.00 Fair CLR 53.1 38.8 59% 29.87 0.0
05 07:15 NW 20 G 31 10.00 Fair CLR 52.3 38.8 60% 29.87 0.0
05 06:55 NW 17 G 29 10.00 Fair CLR 51.3 39.6 64% 29.87 0.0
05 06:35 NW 15 G 22 10.00 Fair CLR 50.5 39.9 67% 29.86 0.0
05 05:55 SW 10 10.00 A Few Clouds FEW070 48.7 40.3 73% 45 29.86 0.0
05 05:35 SW 13 10.00 Fair CLR 48.7 40.6 74% 44 29.86 0.0
05 05:15 SW 12 G 21 10.00 Fair CLR 49.5 40.1 70% 45 29.86 0.0
05 04:55 SW 13 G 21 10.00 Fair CLR 49.5 40.1 52.5 49.3 70% 45 29.86 0.0
05 04:35 SW 13 G 18 10.00 Fair CLR 49.6 39.6 68% 45 29.86 0.0
05 04:15 W 14 10.00 Fair CLR 49.6 39.7 69% 45 29.86 0.0
05 03:55 W 13 10.00 Fair CLR 50 39.2 67% 46 29.86 0.0
05 03:35 SW 13 G 21 10.00 A Few Clouds FEW210 49.8 39.4 67% 45 29.86 0.0
05 03:15 W 14 10.00 A Few Clouds FEW210 50.2 39.6 67% 29.86 0.0
05 02:55 W 13 10.00 Fair CLR 50.5 39.6 66% 29.87 0.0
05 02:35 W 13 10.00 Fair CLR 50.7 39.4 65% 29.87 0.0
05 02:15 W 14 G 25 10.00 A Few Clouds FEW220 51.3 39.6 64% 29.88 0.0
05 01:55 W 18 G 24 10.00 Fair CLR 52 39.4 62% 29.89 0.0
05 01:35 W 23 G 29 10.00 Fair and Breezy CLR 52.3 39.2 61% 29.89 0.0
05 01:15 W 23 G 28 10.00 A Few Clouds and Breezy FEW070 52.3 39 61% 29.9 0.0
05 00:55 W 17 G 25 10.00 Fair CLR 52.2 39.2 61% 29.9 0.0
05 00:35 W 16 10.00 Fair CLR 52.3 38.8 60% 29.9 0.0
05 00:15 SW 7 10.00 Fair CLR 49.5 42.3 76% 47 29.9 0.0
04 23:55 SW 10 10.00 Fair CLR 49.6 42.6 77% 46 29.9 0.0
04 23:35 SW 12 10.00 Fair CLR 50 41.7 73% 46 29.9 0.0
04 23:15 SW 10 10.00 Fair CLR 50 41.9 74% 46 29.91 0.0
04 22:55 SW 10 G 17 10.00 Fair CLR 50.5 42.1 62.6 50.5 73% 29.91 0.0
04 22:35 SW 9 G 20 10.00 Fair CLR 50.7 42.1 72% 29.92 0.0
04 22:15 W 14 10.00 Fair CLR 53.4 38.7 58% 29.92 0.0
04 21:55 SW 7 10.00 Fair CLR 51.6 41.7 69% 29.92 0.0
04 21:35 SW 12 10.00 A Few Clouds FEW065 51.8 42.4 71% 29.92 0.0
04 21:15 SW 13 10.00 A Few Clouds FEW065 52.7 42.6 69% 29.92 0.0
04 20:55 W 12 10.00 Partly Cloudy SCT065 54.5 38.7 55% 29.91 0.0
04 20:35 W 14 G 20 10.00 Mostly Cloudy BKN065 55 38.3 53% 29.9 0.0
04 20:15 SW 14 G 20 10.00 A Few Clouds FEW070 55.2 38.8 54% 29.89 0.0
04 19:55 NW 15 G 22 10.00 A Few Clouds FEW070 55.8 38.5 52% 29.88 0.0
04 19:35 W 14 G 21 10.00 Mostly Cloudy BKN070 56.1 38.7 52% 29.88 0.0
04 19:15 W 17 G 28 10.00 Mostly Cloudy BKN070 57 38.1 49% 29.88 0.0
04 18:55 NW 14 G 24 10.00 Partly Cloudy SCT075 59.4 36.9 43% 29.88 0.0
04 18:35 W 15 G 23 10.00 Fair CLR 59.7 37.8 44% 29.88 0.0
04 18:15 W 17 G 25 10.00 Fair CLR 60.4 36.3 41% 29.88 0.0
04 17:55 W 21 G 31 10.00 A Few Clouds and Breezy FEW070 61 36.5 40% 29.88 0.0
04 17:35 W 18 G 24 10.00 Mostly Cloudy BKN070 61.9 36.9 40% 29.88 0.0
04 17:15 NW 22 G 28 10.00 A Few Clouds and Breezy FEW070 62.1 36.9 39% 29.88 0.0
04 16:55 NW 23 G 31 10.00 Mostly Cloudy and Breezy BKN065 62.6 36 64.6 58.3 37% 29.88 0.0
04 16:35 W 21 G 30 10.00 Overcast and Breezy OVC065 62.6 36.3 38% 29.88 0.0
04 16:15 W 21 G 36 10.00 Overcast and Breezy OVC060 62.6 36.1 37% 29.88 0.0
04 15:55 W 18 G 26 10.00 Overcast OVC060 61.7 35.2 37% 29.89 0.0
04 15:35 W 21 G 29 10.00 Overcast and Breezy OVC055 61.2 35.8 39% 29.89 0.0
04 15:15 W 18 G 29 10.00 Overcast OVC055 61.9 36.5 39% 29.9 0.0
04 14:55 W 22 G 29 10.00 Mostly Cloudy and Breezy BKN050 62.6 37.4 39% 29.9 0.0
04 14:35 NW 22 G 28 10.00 Partly Cloudy and Breezy SCT050 64 37.4 37% 29.91 0.0
04 14:15 W 22 G 29 10.00 Mostly Cloudy and Breezy BKN050 63 36.7 38% 29.9 0.0
04 13:55 W 20 G 32 10.00 A Few Clouds FEW300 62.6 36.9 39% 29.91 0.0
04 13:35 W 21 G 30 10.00 Partly Cloudy and Breezy SCT300 SCT320 62.1 37.8 41% 29.9 0.0
04 13:15 W 25 G 32 10.00 A Few Clouds and Breezy FEW290 60.8 38.7 44% 29.9 0.0
04 12:55 W 28 G 33 10.00 A Few Clouds and Windy FEW330 60.8 38.7 44% 29.91 0.0
04 12:35 W 23 G 29 10.00 A Few Clouds and Breezy FEW310 61.3 39 44% 29.91 0.0
04 12:15 W 24 G 33 10.00 A Few Clouds and Breezy FEW290 60.1 38.8 46% 29.91 0.0
04 11:55 W 25 G 31 10.00 A Few Clouds and Breezy FEW290 59.9 38.5 45% 29.92 0.0
04 11:35 W 21 G 28 10.00 Fair and Breezy CLR 59.5 38.3 45% 29.91 0.0
04 11:15 W 22 G 29 10.00 Fair and Breezy CLR 59.2 38.5 46% 29.92 0.0
04 10:55 W 22 G 33 10.00 Fair and Breezy CLR 58.1 38.7 58.3 49.3 49% 29.92 0.0
04 10:35 W 23 G 30 10.00 Fair and Breezy CLR 57.7 38.7 49% 29.92 0.0
04 10:15 W 23 G 32 10.00 A Few Clouds and Breezy FEW370 57.6 38.3 49% 29.91 0.0
04 09:55 W 22 G 29 10.00 Fair and Breezy CLR 57.7 37.9 48% 29.9 0.0
04 09:35 W 20 10.00 Fair CLR 56.5 38.5 51% 29.9 0.0
04 09:15 W 22 G 29 10.00 A Few Clouds and Breezy FEW310 55 38.3 53% 29.9 0.0
04 08:55 W 21 10.00 Fair and Breezy CLR 53.8 37.9 55% 29.9 0.0
04 08:35 W 18 G 24 10.00 Fair CLR 53.4 37.8 56% 29.9 0.0
04 08:15 W 20 G 28 10.00 Fair CLR 53.1 37.9 57% 29.9 0.0
04 07:55 W 21 G 25 10.00 Fair and Breezy CLR 51.6 37.9 60% 29.9 0.0
04 07:35 W 21 10.00 Fair and Breezy CLR 50.9 37.9 61% 29.89 0.0
04 07:15 W 16 10.00 Fair CLR 50 37.6 63% 45 29.9 0.0
04 06:55 W 18 10.00 Fair CLR 49.6 37.8 64% 44 29.89 0.0
04 06:35 W 16 10.00 Fair CLR 49.6 37.9 64% 44 29.89 0.0
04 06:15 W 18 10.00 Fair CLR 49.3 38.1 66% 43 29.88 0.0
04 05:55 W 15 10.00 Fair CLR 49.8 38.5 65% 45 29.88 0.0
04 05:35 W 13 10.00 Fair CLR 49.8 38.7 66% 45 29.87 0.0
04 05:15 W 17 G 23 10.00 Fair CLR 50.7 38.1 62% 29.87 0.0
04 04:55 W 17 G 24 10.00 Fair CLR 50.7 37.8 55.6 50.7 61% 29.87 0.0
04 04:35 W 13 10.00 Fair CLR 50.9 37.9 61% 29.87 0.0
04 04:15 W 13 10.00 Fair CLR 51.1 38.1 61% 29.87 0.0
04 03:55 W 20 10.00 Fair CLR 51.4 38.3 61% 29.87 0.0
04 03:35 W 20 G 26 10.00 Fair CLR 51.6 38.1 60% 29.87 0.0
04 03:15 W 23 G 31 10.00 Fair and Breezy CLR 52 38.5 60% 29.87 0.0
04 02:55 W 21 10.00 Fair and Breezy CLR 52.2 38.7 60% 29.88 0.0
04 02:35 W 17 G 23 10.00 Fair CLR 51.8 38.8 61% 29.88 0.0
04 02:15 W 16 G 30 10.00 Fair CLR 52.3 38.7 60% 29.88 0.0
04 01:55 W 24 10.00 Fair and Breezy CLR 52.9 38.5 58% 29.89 0.0
04 01:35 W 21 G 32 10.00 Fair and Breezy CLR 52.9 38.1 57% 29.88 0.0
04 01:15 W 25 G 33 10.00 Fair and Breezy CLR 53.1 38.3 57% 29.88 0.0
04 00:55 W 13 G 26 10.00 Fair CLR 54 37.2 53% 29.89 0.0
04 00:35 W 16 G 24 10.00 Fair CLR 54.3 37.6 53% 29.88 0.0
Date Time (pdt) Wind (mph) Vis. (mi.) Weather Sky Cond. Air Dwpt Max. Min. Relative Humidity Wind Chill (°F) Heat Index (°F) altimeter (in) sea level (mb) 1 hr 3 hr 6 hr
6 hour
Temperature (ºF) Pressure Precipitation (in)